EW7004 Weather Reports


time (UTC)temp
C
wind
direction
speed
KPH
gust
KPH
rain 1hr
cm
rain 24hr
cm
rain mn
cm
humidity
%
barometer
mb
20260902034403 24 206 1.6 3.2 0.00 0.00 0.00 34 1031.3
20260902033903 24 173 1.6 8.0 0.00 0.00 0.00 33 1031.3
20260902033403 25 180 1.6 8.0 0.00 0.00 0.00 33 1031.1
20260902032903 25 210 3.2 11.3 0.00 0.00 0.00 33 1031.1
20260902032403 25 218 4.8 9.7 0.00 0.00 0.00 32 1031.0
20260902031903 25 224 4.8 9.7 0.00 0.00 0.00 32 1030.9
20260902031404 25 223 8.0 14.5 0.00 0.00 0.00 31 1030.8
20260902030903 25 223 6.4 11.3 0.00 0.00 0.00 31 1030.8
20260902030403 25 233 8.0 14.5 0.00 0.00 0.00 31 1030.7
20260902025403 26 218 9.7 19.3 0.00 0.00 0.00 30 1030.7
20260902024904 26 215 11.3 19.3 0.00 0.00 0.00 30 1030.7
20260902024403 26 216 8.0 12.9 0.00 0.00 0.00 29 1030.7
20260902023903 26 227 4.8 9.7 0.00 0.00 0.00 29 1030.7
20260902023405 26 208 8.0 12.9 0.00 0.00 0.00 28 1030.6
20260902022903 26 226 8.0 11.3 0.00 0.00 0.00 28 1030.4
20260902022404 27 226 9.7 16.1 0.00 0.00 0.00 28 1030.3
20260902021903 27 226 8.0 16.1 0.00 0.00 0.00 28 1030.3
20260902020903 27 222 9.7 14.5 0.00 0.00 0.00 27 1030.2
20260902015903 28 218 14.5 20.9 0.00 0.00 0.00 26 1030.1
20260902015403 28 223 14.5 19.3 0.00 0.00 0.00 26 1030.1
20260902014903 28 218 14.5 20.9 0.00 0.00 0.00 26 1030.1
20260902013903 28 210 16.1 25.7 0.00 0.00 0.00 25 1030.0
20260902013403 28 209 14.5 24.1 0.00 0.00 0.00 25 1030.0
20260902012904 29 214 12.9 22.5 0.00 0.00 0.00 25 1030.0
20260902012403 29 210 14.5 24.1 0.00 0.00 0.00 25 1029.9
20260902011403 30 228 9.7 24.1 0.00 0.00 0.00 25 1029.9
20260902010904 30 214 19.3 25.7 0.00 0.00 0.00 24 1029.8
20260902010403 30 216 11.3 25.7 0.00 0.00 0.00 24 1029.8
20260902005904 30 228 14.5 25.7 0.00 0.00 0.00 24 1029.8
20260902005404 30 215 20.9 27.4 0.00 0.00 0.00 24 1029.7
20260902004903 30 207 17.7 27.4 0.00 0.00 0.00 24 1029.8
20260902004405 30 210 12.9 24.1 0.00 0.00 0.00 24 1029.8
20260902003904 30 232 14.5 22.5 0.00 0.00 0.00 24 1029.7
20260902003403 30 228 19.3 25.7 0.00 0.00 0.00 24 1029.8
20260902002903 30 221 12.9 25.7 0.00 0.00 0.00 24 1029.8
20260902002404 31 213 14.5 27.4 0.00 0.00 0.00 24 1029.8
20260902001903 31 206 14.5 27.4 0.00 0.00 0.00 24 1029.8
20260902001404 31 223 16.1 24.1 0.00 0.00 0.00 23 1029.8
20260902000903 31 222 17.7 32.2 0.00 0.00 0.00 23 1029.9
20260902000403 31 203 14.5 27.4 0.00 0.00 0.00 23 1029.8
20260901235903 31 209 14.5 25.7 0.00 0.00 0.00 24 1029.9
20260901234903 31 224 11.3 29.0 0.00 0.00 0.00 23 1029.9
20260901233903 31 196 16.1 27.4 0.00 0.00 0.00 22 1029.9
20260901233403 31 208 14.5 27.4 0.00 0.00 0.00 23 1030.0
20260901232403 32 198 16.1 27.4 0.00 0.00 0.00 24 1030.0
20260901230903 32 216 12.9 24.1 0.00 0.00 0.00 24 1030.0
20260901230403 32 229 14.5 20.9 0.00 0.00 0.00 24 1030.0
20260901225904 32 224 11.3 22.5 0.00 0.00 0.00 24 1029.9
20260901225403 32 220 12.9 22.5 0.00 0.00 0.00 24 1030.0
20260901224903 32 219 14.5 24.1 0.00 0.00 0.00 23 1030.1
20260901224403 32 229 16.1 24.1 0.00 0.00 0.00 24 1030.1
20260901223904 32 223 9.7 29.0 0.00 0.00 0.00 24 1030.2
20260901223403 32 214 12.9 19.3 0.00 0.00 0.00 23 1030.2
20260901222903 32 193 8.0 19.3 0.00 0.00 0.00 24 1030.3
20260901222404 32 233 20.9 29.0 0.00 0.00 0.00 22 1030.3
20260901220904 32 214 11.3 19.3 0.00 0.00 0.00 21 1030.4
20260901220403 32 166 6.4 24.1 0.00 0.00 0.00 21 1030.4
20260901215903 32 246 11.3 29.0 0.00 0.00 0.00 20 1030.4
20260901214903 32 207 9.7 19.3 0.00 0.00 0.00 20 1030.6
20260901214403 32 138 3.2 16.1 0.00 0.00 0.00 19 1030.6
20260901213903 32 154 8.0 19.3 0.00 0.00 0.00 21 1030.7
20260901213403 32 233 3.2 12.9 0.00 0.00 0.00 18 1030.7
20260901212403 32 224 4.8 14.5 0.00 0.00 0.00 19 1030.8
20260901211903 32 126 6.4 14.5 0.00 0.00 0.00 19 1030.8
20260901210903 31 303 3.2 11.3 0.00 0.00 0.00 18 1030.9
20260901205903 32 284 12.9 22.5 0.00 0.00 0.00 18 1031.0
20260901205404 32 226 4.8 14.5 0.00 0.00 0.00 18 1031.0
20260901204903 31 234 4.8 19.3 0.00 0.00 0.00 17 1031.2
20260901203403 31 275 11.3 19.3 0.00 0.00 0.00 16 1031.4
20260901202404 31 267 8.0 19.3 0.00 0.00 0.00 17 1031.3
20260901201904 31 135 9.7 14.5 0.00 0.00 0.00 17 1031.5
20260901201403 31 145 4.8 14.5 0.00 0.00 0.00 17 1031.5
20260901200903 31 218 16.1 24.1 0.00 0.00 0.00 15 1031.6
20260901200404 31 227 14.5 24.1 0.00 0.00 0.00 15 1031.6
20260901195903 31 127 4.8 14.5 0.00 0.00 0.00 16 1031.7
20260901195403 31 121 3.2 9.7 0.00 0.00 0.00 16 1031.8
20260901194904 31 180 6.4 12.9 0.00 0.00 0.00 16 1031.9
20260901193903 31 156 4.8 11.3 0.00 0.00 0.00 17 1032.0
20260901192903 31 187 6.4 14.5 0.00 0.00 0.00 17 1032.1
20260901192403 30 188 3.2 9.7 0.00 0.00 0.00 18 1032.2
20260901191904 30 30 3.2 9.7 0.00 0.00 0.00 17 1032.3
20260901191403 30 243 3.2 4.8 0.00 0.00 0.00 17 1032.3
20260901190903 30 233 8.0 12.9 0.00 0.00 0.00 17 1032.4
20260901185904 30 168 4.8 12.9 0.00 0.00 0.00 19 1032.6
20260901184904 30 219 8.0 11.3 0.00 0.00 0.00 18 1032.6
20260901184403 30 214 3.2 9.7 0.00 0.00 0.00 18 1032.6
20260901183904 30 192 1.6 8.0 0.00 0.00 0.00 18 1032.6
20260901183404 29 188 3.2 9.7 0.00 0.00 0.00 19 1032.6
20260901182903 28 237 4.8 11.3 0.00 0.00 0.00 19 1032.7
20260901182404 28 234 4.8 11.3 0.00 0.00 0.00 21 1032.7
20260901181903 28 249 3.2 8.0 0.00 0.00 0.00 22 1032.7
20260901181404 27 291 3.2 11.3 0.00 0.00 0.00 23 1032.8
20260901180903 27 207 3.2 12.9 0.00 0.00 0.00 26 1032.8
20260901180404 28 209 3.2 8.0 0.00 0.00 0.00 26 1032.8
20260901174903 27 311 3.2 12.9 0.00 0.00 0.00 26 1032.9
20260901174403 27 224 4.8 8.0 0.00 0.00 0.00 26 1032.9
20260901173904 27 271 4.8 11.3 0.00 0.00 0.00 27 1032.9
20260901173403 27 254 4.8 8.0 0.00 0.00 0.00 28 1032.9
20260901172903 26 326 1.6 4.8 0.00 0.00 0.00 29 1032.9
20260901171904 26 255 3.2 4.8 0.00 0.00 0.00 28 1032.9
20260901171404 26 132 1.6 4.8 0.00 0.00 0.00 30 1032.8
20260901170903 26 205 1.6 4.8 0.00 0.00 0.00 31 1032.9
20260901170404 26 245 0.0 4.8 0.00 0.00 0.00 29 1032.8
20260901165403 25 163 0.0 0.0 0.00 0.00 0.00 30 1032.9
20260901164904 25 171 1.6 4.8 0.00 0.00 0.00 31 1032.9
20260901163903 24 203 1.6 4.8 0.00 0.00 0.00 31 1033.0
20260901163403 23 153 1.6 3.2 0.00 0.00 0.00 32 1033.0
20260901162904 23 330 0.0 3.2 0.00 0.00 0.00 31 1033.0
20260901162404 22 330 0.0 1.6 0.00 0.00 0.00 32 1032.9
20260901161903 22 284 0.0 4.8 0.00 0.00 0.00 33 1032.9
20260901161403 22 281 3.2 4.8 0.00 0.00 0.00 33 1032.9
20260901160403 21 289 0.0 3.2 0.00 0.00 0.00 36 1032.8
20260901155903 21 277 3.2 4.8 0.00 0.00 0.00 36 1032.8
20260901155403 21 338 0.0 0.0 0.00 0.00 0.00 40 1032.8
20260901154904 21 338 0.0 0.0 0.00 0.00 0.00 40 1032.8
20260901154403 21 338 0.0 3.2 0.00 0.00 0.00 41 1032.8
20260901153404 20 299 0.0 1.6 0.00 0.00 0.00 41 1032.8
20260901152903 20 297 1.6 4.8 0.00 0.00 0.00 40 1032.7
20260901152403 20 280 1.6 4.8 0.00 0.00 0.00 38 1032.8
20260901151903 20 298 1.6 4.8 0.00 0.00 0.00 37 1032.7
20260901151403 20 112 0.0 1.6 0.00 0.00 0.00 36 1032.7
20260901150903 20 112 0.0 0.0 0.00 0.00 0.00 36 1032.6
20260901150403 20 112 0.0 0.0 0.00 0.00 0.00 36 1032.6
20260901145904 20 112 0.0 0.0 0.00 0.00 0.00 37 1032.7
20260901145403 19 112 0.0 0.0 0.00 0.00 0.00 37 1032.6
20260901144903 19 112 0.0 0.0 0.00 0.00 0.00 38 1032.7
20260901144403 18 112 0.0 0.0 0.00 0.00 0.00 39 1032.6
20260901143903 18 112 0.0 0.0 0.00 0.00 0.00 41 1032.6
20260901143403 18 112 0.0 0.0 0.00 0.00 0.00 42 1032.6
20260901142903 17 112 0.0 0.0 0.00 0.00 0.00 42 1032.6
20260901142403 17 112 0.0 0.0 0.00 0.00 0.00 44 1032.5
20260901141903 17 112 0.0 0.0 0.00 0.00 0.00 44 1032.5
20260901141403 16 112 1.6 3.2 0.00 0.00 0.00 45 1032.5
20260901140903 16 112 0.0 0.0 0.00 0.00 0.00 46 1032.4
20260901140403 16 113 0.0 0.0 0.00 0.00 0.00 47 1032.5
20260901135903 16 113 0.0 0.0 0.00 0.00 0.00 47 1032.4
20260901134903 16 113 0.0 4.8 0.00 0.00 0.00 47 1032.2
20260901134403 16 163 0.0 0.0 0.00 0.00 0.00 47 1032.0
20260901133903 16 163 0.0 0.0 0.00 0.00 0.00 47 1032.0
20260901133404 16 163 0.0 0.0 0.00 0.00 0.00 47 1031.9
20260901132903 16 163 0.0 0.0 0.00 0.00 0.00 47 1031.7
20260901132405 16 163 0.0 0.0 0.00 0.00 0.00 47 1031.8
20260901131903 16 163 0.0 0.0 0.00 0.00 0.00 47 1031.7
20260901131404 16 163 0.0 1.6 0.00 0.00 0.00 47 1031.7
20260901130904 16 163 0.0 3.2 0.00 0.00 0.00 47 1031.5
20260901125903 15 163 0.0 3.2 0.00 0.00 0.00 47 1031.6
20260901125403 15 163 0.0 0.0 0.00 0.00 0.00 48 1031.6
20260901124903 16 163 0.0 0.0 0.00 0.00 0.00 48 1031.6
20260901124403 16 163 0.0 0.0 0.00 0.00 0.00 48 1031.5
20260901123904 16 163 0.0 0.0 0.00 0.00 0.00 48 1031.5
20260901123403 16 163 0.0 0.0 0.00 0.00 0.00 49 1031.6
20260901122903 16 163 0.0 0.0 0.00 0.00 0.00 47 1031.6
20260901122403 16 163 0.0 0.0 0.00 0.00 0.00 47 1031.5
20260901121903 16 163 0.0 0.0 0.00 0.00 0.00 48 1031.6
20260901120903 16 163 0.0 0.0 0.00 0.00 0.00 47 1031.3
20260901115904 16 163 0.0 0.0 0.00 0.00 0.00 46 1031.4
20260901115403 16 163 0.0 0.0 0.00 0.00 0.00 47 1031.4
20260901114904 16 163 0.0 0.0 0.00 0.00 0.00 46 1031.4
20260901114403 16 163 0.0 0.0 0.00 0.00 0.00 47 1031.3
20260901113403 16 163 0.0 0.0 0.00 0.00 0.00 47 1031.4
20260901112903 16 163 0.0 0.0 0.00 0.00 0.00 47 1031.4
20260901112403 16 163 0.0 0.0 0.00 0.00 0.00 47 1031.4
20260901111903 16 163 0.0 0.0 0.00 0.00 0.00 48 1031.4
20260901111404 16 163 0.0 0.0 0.00 0.00 0.00 48 1031.5
20260901110904 16 163 0.0 0.0 0.00 0.00 0.00 48 1031.5
20260901110404 16 248 0.0 0.0 0.00 0.00 0.00 47 1031.5
20260901105904 16 248 0.0 0.0 0.00 0.00 0.00 47 1031.4
20260901105403 16 248 0.0 0.0 0.00 0.00 0.00 47 1031.4
20260901104903 17 248 0.0 0.0 0.00 0.00 0.00 47 1031.5
20260901104403 17 248 0.0 0.0 0.00 0.00 0.00 50 1031.4
20260901103904 17 248 0.0 0.0 0.00 0.00 0.00 50 1031.5
20260901103403 17 248 0.0 0.0 0.00 0.00 0.00 50 1031.5
20260901101904 17 248 0.0 0.0 0.00 0.00 0.00 49 1031.4
20260901101403 17 248 0.0 0.0 0.00 0.00 0.00 48 1031.5
20260901100904 17 248 0.0 0.0 0.00 0.00 0.00 46 1031.3
20260901100404 18 122 0.0 0.0 0.00 0.00 0.00 44 1031.4
20260901095904 18 122 0.0 0.0 0.00 0.00 0.00 43 1031.4
20260901095403 18 122 0.0 0.0 0.00 0.00 0.00 43 1031.4
20260901094903 18 122 0.0 0.0 0.00 0.00 0.00 43 1031.5
20260901094403 18 122 0.0 0.0 0.00 0.00 0.00 43 1031.4
20260901093904 18 122 0.0 0.0 0.00 0.00 0.00 43 1031.3
20260901093404 18 122 0.0 0.0 0.00 0.00 0.00 43 1031.3
20260901092903 18 122 0.0 0.0 0.00 0.00 0.00 43 1031.3
20260901091903 18 122 0.0 0.0 0.00 0.00 0.00 43 1031.3
20260901091403 18 122 1.6 4.8 0.00 0.00 0.00 43 1031.3
20260901090903 18 97 0.0 0.0 0.00 0.00 0.00 43 1031.3
20260901090403 18 97 0.0 0.0 0.00 0.00 0.00 43 1031.3
20260901085903 18 97 0.0 3.2 0.00 0.00 0.00 42 1031.2
20260901085404 18 118 0.0 4.8 0.00 0.00 0.00 43 1031.2
20260901084903 18 118 1.6 3.2 0.00 0.00 0.00 42 1031.2
20260901084403 19 118 0.0 0.0 0.00 0.00 0.00 43 1031.3
20260901083403 19 118 0.0 3.2 0.00 0.00 0.00 43 1031.3
20260901082904 19 118 1.6 4.8 0.00 0.00 0.00 43 1031.3
20260901082403 19 141 3.2 4.8 0.00 0.00 0.00 43 1031.4
20260901081903 19 124 0.0 3.2 0.00 0.00 0.00 44 1031.4
20260901081404 19 130 1.6 4.8 0.00 0.00 0.00 44 1031.4
20260901080904 19 130 3.2 4.8 0.00 0.00 0.00 44 1031.4
20260901080403 20 130 1.6 3.2 0.00 0.00 0.00 45 1031.5
20260901075404 20 126 3.2 4.8 0.00 0.00 0.00 49 1031.5
20260901074903 20 88 1.6 3.2 0.00 0.00 0.00 60 1031.6
20260901074403 20 123 3.2 4.8 0.00 0.00 0.00 61 1031.5
20260901073903 20 115 0.0 1.6 0.00 0.00 0.00 61 1031.5
20260901073404 20 115 0.0 1.6 0.00 0.00 0.00 61 1031.4
20260901072904 20 115 0.0 3.2 0.00 0.00 0.00 61 1031.4
20260901072403 20 115 0.0 0.0 0.00 0.00 0.00 61 1031.3
20260901071903 20 115 0.0 0.0 0.00 0.00 0.00 61 1031.4
20260901071403 20 115 0.0 3.2 0.00 0.00 0.00 61 1031.4
20260901070903 20 115 1.6 3.2 0.00 0.00 0.00 61 1031.4
20260901070403 20 115 1.6 4.8 0.00 0.00 0.00 61 1031.4
20260901065904 21 111 1.6 3.2 0.00 0.00 0.00 60 1031.4
20260901065403 21 191 1.6 4.8 0.00 0.00 0.00 61 1031.4
20260901064904 21 140 3.2 4.8 0.00 0.00 0.00 60 1031.3
20260901063903 21 139 1.6 4.8 0.00 0.00 0.00 59 1031.2
20260901063403 21 192 0.0 0.0 0.00 0.00 0.00 59 1031.1
20260901062404 21 192 1.6 4.8 0.00 0.00 0.00 58 1031.0
20260901061903 21 188 1.6 4.8 0.00 0.00 0.00 57 1031.0
20260901060404 22 201 3.2 4.8 0.00 0.00 0.00 54 1031.1
20260901055903 22 182 3.2 4.8 0.00 0.00 0.00 53 1031.1
20260901055403 22 182 0.0 3.2 0.00 0.00 0.00 52 1031.2
20260901054904 22 182 0.0 1.6 0.00 0.00 0.00 52 1031.2
20260901054404 22 182 0.0 0.0 0.00 0.00 0.00 51 1031.2
20260901053904 22 182 0.0 0.0 0.00 0.00 0.00 51 1031.2
20260901052904 22 233 0.0 4.8 0.00 0.00 0.00 51 1031.1
20260901052404 23 233 1.6 4.8 0.00 0.00 0.00 50 1031.1
20260901051903 23 211 3.2 4.8 0.00 0.00 0.00 50 1031.1
20260901051404 23 207 4.8 9.7 0.00 0.00 0.00 49 1031.1
20260901050904 23 208 4.8 9.7 0.00 0.00 0.00 48 1031.1
20260901050403 23 194 3.2 4.8 0.00 0.00 0.00 47 1031.1
20260901045904 23 199 3.2 4.8 0.00 0.00 0.00 44 1031.0
20260901045403 24 207 3.2 8.0 0.00 0.00 0.00 41 1030.9
20260901044904 24 198 3.2 4.8 0.00 0.00 0.00 41 1030.9
20260901044404 24 228 4.8 4.8 0.00 0.00 0.00 40 1031.0
20260901043904 25 196 0.0 3.2 0.00 0.00 0.00 35 1030.9
20260901042903 25 213 3.2 8.0 0.00 0.00 0.00 34 1030.8
20260901042404 25 191 3.2 8.0 0.00 0.00 0.00 34 1030.7
20260901041904 25 198 3.2 9.7 0.00 0.00 0.00 34 1030.6
20260901041404 25 209 4.8 9.7 0.00 0.00 0.00 33 1030.5
20260901040904 25 217 4.8 8.0 0.00 0.00 0.00 32 1030.4
20260901040403 25 227 4.8 8.0 0.00 0.00 0.00 27 1030.4
20260901035903 26 206 3.2 4.8 0.00 0.00 0.00 26 1030.4
20260901035403 26 180 1.6 3.2 0.00 0.00 0.00 28 1030.4